TimeCDT,TemperatureF,Dew PointF,Humidity,Sea Level PressureIn,VisibilityMPH,Wind Direction,Wind SpeedMPH,Gust SpeedMPH,PrecipitationIn,Events,Conditions,WindDirDegrees,DateUTC
12:13 AM,48.2,41.0,76,29.86,10.0,West,20.7,28.8,N/A,,Scattered Clouds,280,2012-10-04 05:13:00
12:33 AM,48.2,41.0,76,29.87,10.0,WNW,21.9,33.4,N/A,,Mostly Cloudy,290,2012-10-04 05:33:00
12:54 AM,48.2,41.0,76,29.88,10.0,WNW,27.6,39.1,N/A,,Overcast,300,2012-10-04 05:54:00
1:13 AM,46.4,39.2,76,29.88,10.0,WNW,20.7,32.2,N/A,,Overcast,300,2012-10-04 06:13:00
1:33 AM,46.4,39.2,76,29.91,10.0,WNW,26.5,36.8,N/A,,Overcast,300,2012-10-04 06:33:00
1:54 AM,44.6,39.2,81,29.92,10.0,NW,26.5,39.1,N/A,,Overcast,310,2012-10-04 06:54:00
2:13 AM,44.6,39.2,81,29.94,10.0,WNW,27.6,34.5,N/A,,Overcast,300,2012-10-04 07:13:00
2:33 AM,42.8,37.4,81,29.96,10.0,WNW,21.9,33.4,N/A,,Overcast,300,2012-10-04 07:33:00
2:54 AM,42.8,37.4,81,29.96,10.0,NW,20.7,26.5,N/A,,Overcast,310,2012-10-04 07:54:00
3:13 AM,42.8,37.4,81,29.96,10.0,WNW,23.0,32.2,N/A,,Overcast,300,2012-10-04 08:13:00
3:33 AM,42.8,37.4,81,29.96,10.0,NW,24.2,34.5,N/A,,Overcast,310,2012-10-04 08:33:00
3:53 AM,42.8,37.4,81,29.96,7.0,NW,15.0,25.3,N/A,,Overcast,310,2012-10-04 08:53:00
4:13 AM,39.2,35.6,87,29.98,10.0,WNW,20.7,29.9,N/A,,Overcast,300,2012-10-04 09:13:00
4:33 AM,39.2,35.6,87,29.99,10.0,WNW,20.7,26.5,N/A,,Overcast,300,2012-10-04 09:33:00
4:53 AM,39.2,33.8,81,30.00,10.0,NW,20.7,27.6,N/A,,Overcast,310,2012-10-04 09:53:00
5:13 AM,39.2,33.8,81,30.00,10.0,NW,15.0,27.6,N/A,,Mostly Cloudy,320,2012-10-04 10:13:00
5:33 AM,39.2,33.8,81,30.00,10.0,NW,24.2,32.2,N/A,,Mostly Cloudy,310,2012-10-04 10:33:00
5:53 AM,39.2,33.8,81,30.01,10.0,NW,20.7,28.8,N/A,,Overcast,310,2012-10-04 10:53:00
6:13 AM,39.2,33.8,81,30.03,10.0,NW,17.3,29.9,N/A,,Overcast,310,2012-10-04 11:13:00
6:33 AM,39.2,33.8,81,30.04,10.0,NW,23.0,28.8,N/A,,Overcast,310,2012-10-04 11:33:00
6:54 AM,39.2,33.8,81,30.04,10.0,NW,18.4,31.1,N/A,,Overcast,310,2012-10-04 11:54:00
7:13 AM,39.2,33.8,81,30.05,10.0,NW,23.0,34.5,N/A,,Overcast,320,2012-10-04 12:13:00
7:38 AM,39.2,33.8,81,30.07,10.0,NW,18.4,31.1,N/A,,Overcast,320,2012-10-04 12:38:00
7:54 AM,39.2,33.8,81,30.07,10.0,NW,24.2,34.5,N/A,,Overcast,320,2012-10-04 12:54:00
8:13 AM,39.2,33.8,81,30.08,7.0,NW,16.1,26.5,N/A,,Overcast,320,2012-10-04 13:13:00
8:33 AM,39.2,33.8,81,30.09,10.0,NW,16.1,31.1,N/A,,Overcast,320,2012-10-04 13:33:00
8:54 AM,39.2,32.0,75,30.10,10.0,NNW,24.2,36.8,N/A,,Overcast,330,2012-10-04 13:54:00
9:13 AM,39.2,32.0,75,30.11,10.0,NW,20.7,35.7,N/A,,Overcast,320,2012-10-04 14:13:00
9:33 AM,39.2,32.0,75,30.12,10.0,NNW,20.7,35.7,N/A,,Overcast,330,2012-10-04 14:33:00
9:54 AM,41.0,32.0,70,30.12,10.0,NW,16.1,32.2,N/A,,Overcast,320,2012-10-04 14:54:00
10:13 AM,41.0,30.2,65,30.13,10.0,NW,24.2,40.3,N/A,,Overcast,310,2012-10-04 15:13:00
10:33 AM,42.8,30.2,61,30.13,10.0,NNW,27.6,39.1,N/A,,Overcast,330,2012-10-04 15:33:00
10:54 AM,42.8,30.2,61,30.14,10.0,NW,26.5,36.8,N/A,,Overcast,320,2012-10-04 15:54:00
11:33 AM,41.0,30.2,65,30.16,10.0,NW,26.5,32.2,N/A,,Overcast,320,2012-10-04 16:33:00
11:54 AM,42.8,30.2,61,30.17,10.0,NW,18.4,32.2,N/A,,Overcast,320,2012-10-04 16:54:00
12:13 PM,41.0,30.2,65,30.18,10.0,NNW,25.3,33.4,N/A,,Overcast,330,2012-10-04 17:13:00
12:33 PM,42.8,30.2,61,30.19,10.0,NW,23.0,29.9,N/A,,Overcast,320,2012-10-04 17:33:00
12:53 PM,42.8,30.2,61,30.18,10.0,NW,23.0,34.5,N/A,,Overcast,310,2012-10-04 17:53:00
1:13 PM,44.6,30.2,57,30.19,10.0,NW,19.6,29.9,N/A,,Overcast,310,2012-10-04 18:13:00
1:33 PM,44.6,30.2,57,30.19,10.0,NNW,20.7,29.9,N/A,,Overcast,330,2012-10-04 18:33:00
1:53 PM,44.6,30.2,57,30.19,10.0,NNW,20.7,33.4,N/A,,Overcast,330,2012-10-04 18:53:00
2:13 PM,44.6,30.2,57,30.20,10.0,NNW,21.9,28.8,N/A,,Overcast,330,2012-10-04 19:13:00
2:33 PM,46.4,28.4,50,30.19,10.0,NW,17.3,32.2,N/A,,Overcast,320,2012-10-04 19:33:00
2:53 PM,46.4,28.4,50,30.19,10.0,NW,24.2,32.2,N/A,,Overcast,320,2012-10-04 19:53:00
3:13 PM,46.4,28.4,50,30.19,10.0,NNW,23.0,39.1,N/A,,Mostly Cloudy,330,2012-10-04 20:13:00
3:33 PM,46.4,28.4,50,30.19,10.0,NNW,17.3,33.4,N/A,,Overcast,330,2012-10-04 20:33:00
3:53 PM,46.4,28.4,50,30.19,10.0,NNW,20.7,33.4,N/A,,Mostly Cloudy,330,2012-10-04 20:53:00
4:13 PM,46.4,28.4,50,30.20,10.0,NNW,20.7,28.8,N/A,,Overcast,330,2012-10-04 21:13:00
4:33 PM,44.6,28.4,53,30.21,10.0,NNW,20.7,28.8,N/A,,Overcast,330,2012-10-04 21:33:00
4:53 PM,44.6,28.4,53,30.21,10.0,NW,21.9,28.8,N/A,,Overcast,320,2012-10-04 21:53:00
5:13 PM,44.6,28.4,53,30.22,10.0,NW,19.6,27.6,N/A,,Overcast,320,2012-10-04 22:13:00
5:33 PM,44.6,28.4,53,30.22,10.0,NW,15.0,27.6,N/A,,Overcast,320,2012-10-04 22:33:00
5:53 PM,42.8,28.4,57,30.23,10.0,NW,17.3,24.2,N/A,,Overcast,320,2012-10-04 22:53:00
6:14 PM,42.8,28.4,57,30.23,10.0,NNW,18.4,26.5,N/A,,Overcast,340,2012-10-04 23:14:00
6:33 PM,42.8,28.4,57,30.24,10.0,NNW,15.0,21.9,N/A,,Overcast,330,2012-10-04 23:33:00
6:53 PM,42.8,26.6,53,30.24,10.0,NNW,11.5,25.3,N/A,,Overcast,330,2012-10-04 23:53:00
7:14 PM,42.8,28.4,57,30.24,10.0,NW,13.8,21.9,N/A,,Overcast,320,2012-10-05 00:14:00
7:33 PM,42.8,28.4,57,30.24,10.0,NW,11.5,17.3,N/A,,Overcast,320,2012-10-05 00:33:00
8:14 PM,42.8,26.6,53,30.25,10.0,NNW,15.0,23.0,N/A,,Overcast,330,2012-10-05 01:14:00
8:33 PM,42.8,26.6,53,30.25,10.0,NNW,12.7,20.7,N/A,,Overcast,340,2012-10-05 01:33:00
8:53 PM,42.8,26.6,53,30.26,10.0,NNW,12.7,21.9,N/A,,Overcast,340,2012-10-05 01:53:00
9:14 PM,42.8,26.6,53,30.26,10.0,NW,12.7,19.6,N/A,,Overcast,320,2012-10-05 02:14:00
9:33 PM,42.8,26.6,53,30.26,10.0,NW,9.2,-,N/A,,Overcast,320,2012-10-05 02:33:00
9:53 PM,42.8,26.6,53,30.26,10.0,NW,9.2,-,N/A,,Overcast,310,2012-10-05 02:53:00
10:13 PM,42.8,28.4,57,30.25,10.0,NW,9.2,-,N/A,,Overcast,310,2012-10-05 03:13:00
10:33 PM,42.8,28.4,57,30.25,10.0,WNW,6.9,-,N/A,,Overcast,300,2012-10-05 03:33:00
10:53 PM,42.8,28.4,57,30.25,10.0,NW,11.5,-,N/A,,Overcast,310,2012-10-05 03:53:00
11:13 PM,42.8,28.4,57,30.26,10.0,NW,10.4,-,N/A,,Overcast,310,2012-10-05 04:13:00
11:33 PM,42.8,26.6,53,30.25,10.0,NW,10.4,-,N/A,,Overcast,310,2012-10-05 04:33:00
11:54 PM,42.8,26.6,53,30.25,10.0,NNW,10.4,-,N/A,,Overcast,330,2012-10-05 04:54:00